{"data":{"norad_id":67526,"epoch":"2026-05-25T04:30:03.940704Z","epoch_age_seconds":59151,"freshness":"FRESH","line1":"1 67526U 26013E   26145.18754561 -.00000084  00000+0  87290-4 0  9995","line2":"2 67526  50.0049  77.9725 0000927  26.6810 333.4110 13.29327462 17017","mean_motion":13.29327462,"eccentricity":9.27e-5,"inclination_deg":50.0049,"raan_deg":77.9725,"arg_perigee_deg":26.681,"mean_anomaly_deg":333.411,"bstar":8.729e-5,"rev_number":1701,"period_min":108.32545337125,"perigee_km":1148.6032592023,"apogee_km":1149.9988462173,"semimajor_km":7527.4380527098,"source":"CELESTRAK","updated_at":"2026-05-25T13:38:07.050440Z"}}